Weather History for Sexton Summit, OR

Change the Weather History Date:

Saturday, February 16, 2013

  Actual Average Record
Temperature  
Mean Temperature 38 °F -  
Max Temperature 46 °F 40 °F 39 °F (2014)
Min Temperature 28 °F 30 °F 28 °F (2014)
Degree Days  
Heating Degree Days 27    
Moisture  
Dew Point 29 °F    
Average Humidity 76    
Maximum Humidity 96    
Minimum Humidity 46    
Precipitation  
Precipitation 0.00 in - - ()
Sea Level Pressure  
Sea Level Pressure 30.19 in    
Wind  
Wind Speed 9 mph (NW)    
Max Wind Speed 14 mph    
Max Gust Speed 25 mph    
Visibility 10 miles    
Events      
Averages and records for this station are not official NWS values.
T = Trace of Precipitation, MM = Missing Value Source: NWS Daily Summary

Daily Weather History Graph

Daily Weather History Graph

Search for Another Location

Airport:

Trip Planner

Search our weather history database for the weather conditions in past years. The results will help you decide how hot, cold, wet, or windy it might be!

Date:

Astronomy

Feb. 16, 2013 Rise Set
Actual Time 7:08 AM PST 5:47 PM PST
Civil Twilight 6:39 AM PST 6:16 PM PST
Nautical Twilight 6:06 AM PST 6:49 PM PST
Astronomical Twilight 5:33 AM PST 7:21 PM PST
Moon 10:15 AM PST (2/16) 12:01 AM PST (2/16)
Length of Visible Light 11h 36m
Length of Day
10h 38m
Waxing Crescent, 40% of the Moon is Illuminated
Feb 16
Waxing Crescent
Feb 17
First Quarter
Feb 25
Full
Mar 4
Last Quarter
Mar 11
New

Hourly Weather History & Observations

Time (PST) Temp. Windchill Dew Point Humidity Pressure Visibility Wind Dir Wind Speed Gust Speed Precip Events Conditions
12:56 AM 45.0 °F 38.9 °F 28.0 °F 52% 30.22 in 10.0 mi South 12.7 mph - N/A   Clear
1:56 AM 46.0 °F 39.9 °F 26.1 °F 46% 30.20 in 10.0 mi SSW 13.8 mph - N/A   Clear
2:56 AM 46.0 °F 40.2 °F 27.0 °F 47% 30.19 in 10.0 mi South 12.7 mph - N/A   Clear
3:56 AM 45.0 °F 39.3 °F 27.0 °F 49% 30.19 in 10.0 mi South 11.5 mph - N/A   Clear
4:56 AM 44.1 °F 38.6 °F 26.1 °F 49% 30.19 in 10.0 mi South 10.4 mph - N/A   Clear
5:56 AM 43.0 °F 37.7 °F 26.1 °F 51% 30.20 in 10.0 mi SSW 9.2 mph - N/A   Clear
6:56 AM 43.0 °F 36.4 °F 26.1 °F 51% 30.19 in 10.0 mi SSW 12.7 mph - N/A   Clear
7:56 AM 44.1 °F 40.8 °F 26.1 °F 49% 30.20 in 10.0 mi SW 5.8 mph - N/A   Clear
8:56 AM 43.0 °F - 26.1 °F 51% 30.22 in 10.0 mi Calm Calm - N/A   Clear
9:56 AM 44.1 °F 42.5 °F 27.0 °F 51% 30.21 in 10.0 mi NW 3.5 mph - N/A   Clear
10:56 AM 44.1 °F 42.5 °F 28.9 °F 55% 30.21 in 10.0 mi Variable 3.5 mph - N/A   Clear
11:56 AM 42.1 °F 38.4 °F 33.1 °F 70% 30.22 in 10.0 mi NNW 5.8 mph - N/A   Clear
12:56 PM 44.1 °F 42.5 °F 34.0 °F 68% 30.19 in 10.0 mi Variable 3.5 mph - N/A   Clear
1:56 PM 44.1 °F 41.5 °F 36.0 °F 73% 30.17 in 10.0 mi NW 4.6 mph - N/A   Clear
2:56 PM 41.0 °F 35.8 °F 35.1 °F 79% 30.17 in 10.0 mi NNW 8.1 mph - N/A   Clear
3:56 PM 37.0 °F 31.6 °F 32.0 °F 82% 30.19 in 10.0 mi NNW 6.9 mph 17.3 mph N/A   Clear
4:56 PM 35.1 °F 27.4 °F 30.9 °F 85% 30.18 in 10.0 mi North 10.4 mph 25.3 mph N/A   Clear
5:20 PM 35.6 °F 27.1 °F 30.2 °F 81% 30.16 in 10.0 mi North 12.7 mph 20.7 mph N/A   Partly Cloudy
5:38 PM 35.6 °F 28.6 °F 32.0 °F 87% 30.16 in 10.0 mi NNW 9.2 mph 23.0 mph N/A   Mostly Cloudy
5:54 PM 33.8 °F 25.3 °F 30.2 °F 87% 30.16 in 10.0 mi North 11.5 mph 21.9 mph N/A   Scattered Clouds
5:56 PM 34.0 °F 25.0 °F 30.9 °F 89% 30.19 in 10.0 mi North 12.7 mph 23.0 mph N/A   Scattered Clouds
6:47 PM 33.8 °F 26.4 °F 30.2 °F 87% 30.16 in 10.0 mi North 9.2 mph 20.7 mph N/A   Mostly Cloudy
6:56 PM 33.1 °F 27.7 °F 30.9 °F 92% 30.19 in 10.0 mi Variable 5.8 mph - N/A   Mostly Cloudy
7:10 PM 33.8 °F 27.7 °F 30.2 °F 87% 30.16 in 10.0 mi North 6.9 mph - N/A   Overcast
7:17 PM 33.8 °F 26.4 °F 30.2 °F 87% 30.16 in 10.0 mi North 9.2 mph - N/A   Overcast
7:24 PM 33.8 °F 27.7 °F 30.2 °F 87% 30.16 in 10.0 mi Variable 6.9 mph 19.6 mph N/A   Overcast
7:35 PM 32.0 °F 24.2 °F 30.2 °F 93% 30.16 in 10.0 mi North 9.2 mph - N/A   Mostly Cloudy
7:56 PM 32.0 °F 25.6 °F 30.9 °F 96% 30.20 in 10.0 mi Variable 6.9 mph - N/A   Mostly Cloudy
8:25 PM 32.0 °F 26.4 °F 30.2 °F 93% 30.16 in 10.0 mi Variable 5.8 mph - N/A   Overcast
8:38 PM 32.0 °F 27.5 °F 30.2 °F 93% 30.17 in 10.0 mi Variable 4.6 mph 17.3 mph N/A   Overcast
8:56 PM 32.0 °F 27.5 °F 30.0 °F 92% 30.21 in 10.0 mi Variable 4.6 mph - N/A   Overcast
9:14 PM 32.0 °F 26.4 °F 28.4 °F 87% 30.17 in 10.0 mi Variable 5.8 mph - N/A   Overcast
9:56 PM 30.9 °F 25.2 °F 28.0 °F 89% 30.22 in 10.0 mi Variable 5.8 mph - N/A   Overcast
10:30 PM 30.2 °F 25.4 °F 28.4 °F 93% 30.18 in 10.0 mi Variable 4.6 mph - N/A   Overcast
10:51 PM 30.2 °F - 28.4 °F 93% 30.18 in 10.0 mi Calm Calm - N/A   Overcast
10:56 PM 30.9 °F - 28.0 °F 89% 30.22 in 10.0 mi Calm Calm - N/A   Overcast
11:23 PM 30.2 °F 26.7 °F 28.4 °F 93% 30.18 in 10.0 mi Variable 3.5 mph - N/A   Overcast
11:56 PM 28.9 °F 25.2 °F 27.0 °F 92% 30.23 in 10.0 mi Variable 3.5 mph - N/A   Overcast